Regional Weather Roundup
Issued by NWS

Home | Current Version | Previous Version | Graphics & Text | Print | Product List | Glossary On
Versions: 1 2 3 4 5 6 7 8 9 10 11 12 13 14 15 16 17 18 19 20 21 22 23 24 25 26 27 28 29 30 31 32 33 34 35 36 37 38 39 40 41 42 43 44 45 46 47 48 49 50
000
ASUS43 KIND 290659
RWRIN

WEATHER ROUNDUP FOR INDIANA
NATIONAL WEATHER SERVICE INDIANAPOLIS IN
200 AM EST THU JAN 29 2015

NOTE: "FAIR" INDICATES FEW OR NO CLOUDS BELOW 12,000 FEET WITH NO
SIGNIFICANT WEATHER AND/OR OBSTRUCTIONS TO VISIBILITY.

* - STATION DOES NOT REPORT WEATHER SUCH AS PRECIPITATION OR FOG.

+ - STATION NOT QUALITY CONTROLLED BY THE NATIONAL WEATHER SERVICE.
    USE DATA WITH CAUTION...ESPECIALLY DEWPOINT AND RELATIVE
    HUMIDITY OBSERVATIONS.

INZ001>003-010>013-019-020-290800-
NORTHWEST INDIANA

CITY           SKY/WX    TMP DP  RH WIND       PRES   REMARKS
VALPARAISO     NOT AVBL

$$

LMZ046-743>745-290800-
SOUTHERN LAKE MICHIGAN

STATION/POSITION TIME  TEMP WIND        PRES
                       AIR  DIR/SP/G
                 (UTC) (F)  (DEG/KT/KT) (MB)
MICHIGAN CITY    0600   34  130/ 15/ 21   N/A

$$

INZ004-005-014>016-021>024-290800-
NORTH CENTRAL INDIANA

CITY           SKY/WX    TMP DP  RH WIND       PRES   REMARKS
GOSHEN         CLOUDY    31  21  66 S15       29.89F WCI  20
SOUTH BEND     LGT RAIN  34  22  61 S15       29.89F WCI  24

$$

INZ006>009-017-018-025>027-290800-
NORTHEAST INDIANA

CITY           SKY/WX    TMP DP  RH WIND       PRES   REMARKS
ANGOLA *+      CLOUDY    27  19  74 S14       29.94F WCI  15
FORT WAYNE     CLOUDY    31  21  66 SE10      29.97F WCI  22

$$

INZ028-029-035-036-043>045-051>053-290800-
WEST CENTRAL INDIANA

CITY           SKY/WX    TMP DP  RH WIND       PRES   REMARKS
GREENCASTLE +  CLOUDY    36  18  48 S12       29.93F
LAFAYETTE      CLOUDY    36  21  54 S12       29.87F
TERRE HAUTE    CLOUDY    39  24  55 S16G24    29.90F

$$

INZ030>032-037>040-046>048-054>057-064-065-290800-
CENTRAL INDIANA

CITY           SKY/WX    TMP DP  RH WIND       PRES   REMARKS
INDIANAPOLIS   CLOUDY    33  19  56 S14       29.94F WCI  23
-EAGLE CREEK   CLOUDY    34  19  54 SE10      29.94F WCI  26
KOKOMO *+      CLOUDY    34  21  60 S21       29.91F WCI  22
MT COMFORT *+  CLOUDY    34  12  40 S16G24    29.96F WCI  23
SHELBYVILLE    CLOUDY    36  21  54 S16       29.98F

$$

INZ033-034-041-042-049-050-058-059-290800-
EAST CENTRAL INDIANA

CITY           SKY/WX    TMP DP  RH WIND       PRES   REMARKS
MUNCIE         CLOUDY    34  20  56 S17G28    29.95F WCI  23

$$

INZ060-061-067>069-081>083-085>088-290800-
SOUTHWEST INDIANA

CITY           SKY/WX    TMP DP  RH WIND       PRES   REMARKS
EVANSVILLE     CLOUDY    44  28  53 S9        29.98F
HUNTINGBURG *+ CLOUDY    41  25  52 S8        29.99F

$$

INZ062-063-066-070>080-084-089>092-290800-
SOUTH CENTRAL AND SOUTHEAST INDIANA

CITY           SKY/WX    TMP DP  RH WIND       PRES   REMARKS
BLOOMINGTON    CLOUDY    35  19  52 SE13      29.95F WCI  26

$$




USA.gov is the U.S. government's official web portal to all federal, state and local government web resources and services.